Aberdeen / Amory, MS

6:17 PM CDT on April 28, 2017 (GMT -0500)
Aberdeen / Amory

Weather History for KM40 - August, 2014

Change the Weather History Date:

Friday, August 15, 2014

  Actual Average (KCBM) Record (KCBM)
Temperature  
Mean Temperature 76 °F -  
Max Temperature 91 °F 88 °F 104 °F (2007)
Min Temperature 60 °F 69 °F 60 °F (2014)
Cooling Degree Days 10    
Growing Degree Days 26 (Base 50)    
Moisture  
Dew Point 63 °F    
Average Humidity 56    
Maximum Humidity 59    
Minimum Humidity 55    
Precipitation  
Precipitation 0.00 in - - ()
Sea Level Pressure  
Sea Level Pressure 30.05 in    
Wind  
Wind Speed 0 mph (North)    
Max Wind Speed 0 mph    
Max Gust Speed -    
Visibility 7 miles    
Events      
Averages and records for this station are not official NWS values.
T = Trace of Precipitation, MM = Missing Value Source: NWS Daily Summary

Daily Weather History Graph

Daily Weather History Graph

Search for Another Location

Airport or City:

Trip Planner

Search our weather history database for the weather conditions in past years. The results will help you decide how hot, cold, wet, or windy it might be!

Date:

Astronomy

Aug. 15, 2014 Rise Set
Actual Time 6:15 AM CDT 7:40 PM CDT
Civil Twilight 5:49 AM CDT 8:06 PM CDT
Nautical Twilight 5:17 AM CDT 8:38 PM CDT
Astronomical Twilight 4:44 AM CDT 9:11 PM CDT
Moon 11:01 PM CDT (8/15) 11:40 AM CDT (8/15)
Length of Visible Light 14h 17m
Length of Day
13h 24m
Waning Gibbous, 69% of the Moon is Illuminated
Aug 15
Waning Gibbous
Aug 17
Last Quarter
Aug 25
New
Sep 2
First Quarter
Sep 8
Full

Hourly Weather History & Observations

Time (CDT) Temp. Heat Index Dew Point Humidity Pressure Visibility Wind Dir Wind Speed Gust Speed Precip Events Conditions
4:15 AM 60.8 °F - 44.6 °F 55% 30.02 in 0.2 mi Calm Calm - N/A   Haze
6:15 AM 60.8 °F - 44.6 °F 55% 30.04 in 0.2 mi Calm Calm - N/A   Haze
7:15 AM 60.8 °F - 44.6 °F 55% 30.06 in 0.2 mi Calm Calm - N/A   Haze
7:35 AM 60.8 °F - 44.6 °F 55% 30.06 in 0.2 mi Calm Calm - N/A   Haze
8:15 AM 62.6 °F - 46.4 °F 55% 30.07 in 1.5 mi Calm Calm - N/A   Haze
8:35 AM 64.4 °F - 48.2 °F 56% 30.07 in 1.0 mi Calm Calm - N/A   Haze
10:15 AM 75.2 °F - 59.0 °F 57% 30.08 in 9.0 mi Calm Calm - N/A   Clear
10:35 AM 78.8 °F - 62.6 °F 57% 30.08 in 8.0 mi Calm Calm - N/A   Clear
10:55 AM 80.6 °F 82.3 °F 64.4 °F 58% 30.08 in 10.0 mi Calm Calm - N/A   Clear
11:35 AM 84.2 °F 86.6 °F 66.2 °F 55% 30.09 in 10.0 mi Calm Calm - N/A   Clear
11:55 AM 86.0 °F 90.4 °F 69.8 °F 58% 30.08 in 9.0 mi Calm Calm - N/A   Clear
12:15 PM 87.8 °F 92.6 °F 69.8 °F 55% 30.08 in 9.0 mi Calm Calm - N/A   Clear
12:35 PM 87.8 °F 92.6 °F 69.8 °F 55% 30.07 in 9.0 mi Calm Calm - N/A   Clear
1:15 PM 87.8 °F 92.6 °F 69.8 °F 55% 30.06 in 9.0 mi Calm Calm - N/A   Clear
1:35 PM 89.6 °F 96.2 °F 71.6 °F 55% 30.05 in 8.0 mi Calm Calm - N/A   Clear
2:55 PM 89.6 °F 96.2 °F 71.6 °F 55% 30.03 in 10.0 mi Calm Calm - N/A   Partly Cloudy
4:15 PM 91.4 °F 100.1 °F 73.4 °F 55% 30.01 in 10.0 mi Calm Calm - N/A   Partly Cloudy
4:55 PM 89.6 °F 96.2 °F 71.6 °F 55% 30.01 in 9.0 mi Calm Calm - N/A   Partly Cloudy
5:15 PM 91.4 °F 100.1 °F 73.4 °F 55% 30.01 in 9.0 mi Calm Calm - N/A   Partly Cloudy
5:55 PM 89.6 °F 98.2 °F 73.4 °F 59% 30.01 in 8.0 mi Calm Calm - N/A   Clear
6:15 PM 89.6 °F 98.2 °F 73.4 °F 59% 30.01 in 8.0 mi Calm Calm - N/A   Clear
6:35 PM 89.6 °F 96.2 °F 71.6 °F 55% 30.01 in 9.0 mi Calm Calm - N/A   Clear